Weather reports worldwide

Advertisment
Landivisiau, France (7106): temperature & dewpoint: 12.10.2018 03:00:00 - 18.10.2018 03:00:00 (CEST)Landivisiau, France (7106): temperature 5cm: 12.10.2018 03:00:00 - 18.10.2018 03:00:00 (CEST)Landivisiau, France (7106): temperature -20cm: 12.10.2018 03:00:00 - 18.10.2018 03:00:00 (CEST)Landivisiau, France (7106): wind speed & gusts: 12.10.2018 03:00:00 - 18.10.2018 03:00:00 (CEST)Landivisiau, France (7106): wind direction: 12.10.2018 03:00:00 - 18.10.2018 03:00:00 (CEST)Landivisiau, France (7106): reduced air pressure: 12.10.2018 03:00:00 - 18.10.2018 03:00:00 (CEST)Landivisiau, France (7106): visibility: 12.10.2018 03:00:00 - 18.10.2018 03:00:00 (CEST)Landivisiau, France (7106): precipitation: 12.10.2018 03:00:00 - 18.10.2018 03:00:00 (CEST)
Date & Time tt [°C] td [°C] tt 5cm [°C] tt -20cm [°C] ff [km/h] ff [kn] fx [km/h] fx [kn] dd ppp [hPa] vv [km] rr [mm]
18.10.2018 03:00:00 10,7 10,1 9,3 14,0 9 5 15 8 ENE 1022,2 7 0,0
18.10.2018 02:00:00 10,0 9,7 8,1 14,1 9 5 13 7 ENE 1022,0 1,4 0,0
18.10.2018 01:00:00 10,7 10,5 9,0 14,2 9 5 13 7 ENE 1021,9 0,6 0,0
18.10.2018 00:00:00 10,4 10,2 9,2 14,3 8 4 13 7 NE 1021,9 3,1 0,0
17.10.2018 23:00:00 10,6 10,4 9,6 14,3 8 4 15 8 NNE 1021,6 1,4 0,0
17.10.2018 22:00:00 11,4 11,2 10,7 14,4 11 6 16 9 NNE 1021,0 3,1 0,0
17.10.2018 21:00:00 12,0 11,5 11,5 14,4 10 5 18 10 NE 1020,6 10 0,0
17.10.2018 20:00:00 12,6 12,3 12,5 14,4 9 5 21 11 ENE 1019,8 2,8 0,0
17.10.2018 19:00:00 13,0 12,5 12,9 14,3 10 6 16 9 ENE 1019,0 5 0,0
17.10.2018 18:00:00 13,0 12,5 12,9 14,3 5 3 16 9 E 1018,5 2,8 0,4
17.10.2018 17:00:00 13,3 12,5 13,3 14,2 12 6 15 8 E 1018,2 2,0 0,0
17.10.2018 16:00:00 13,8 13,5 13,6 14,1 8 4 18 10 SE 1017,9 3,5 0,0
17.10.2018 15:00:00 13,7 13,2 13,8 14,0 11 6 16 9 SE 1017,9 3,1 0,0
17.10.2018 14:00:00 14,0 13,5 14,1 13,9 10 6 21 11 S 1018,0 4,7 0,0
17.10.2018 13:00:00 13,6 13,3 13,5 13,8 9 5 16 9 SSE 1018,4 3,5 0,0
17.10.2018 12:00:00 12,9 12,6 12,6 13,8 9 5 15 8 SSE 1018,4 2,4 0,0
17.10.2018 11:00:00 12,5 12,2 12,3 13,8 8 5 15 8 SSE 1018,4 2,0 0,0
17.10.2018 10:00:00 12,0 11,7 11,5 13,8 9 5 13 7 S 1018,1 3,9 0,0
17.10.2018 09:00:00 11,7 11,2 11,5 13,9 10 6 15 8 SSE 1018,0 7 0,4
17.10.2018 08:00:00 11,7 11,4 11,5 13,9 10 5 16 9 S 1017,8 6 0,0
17.10.2018 07:00:00 11,5 11,2 10,9 14,0 11 6 13 7 S 1017,8 6 0,0
17.10.2018 06:00:00 11,0 10,7 - - 9 5 15 8 S 1017,9 7 0,0
17.10.2018 05:00:00 10,5 10,2 8,6 14,3 10 5 15 8 S 1017,9 6 0,0
17.10.2018 04:00:00 9,9 9,4 8,6 14,4 11 6 16 9 SSW 1018,3 10 0,0
17.10.2018 03:00:00 10,4 9,5 9,0 14,6 13 7 16 9 SSW 1018,5 18 0,0
17.10.2018 02:00:00 10,2 9,1 8,4 14,7 10 6 21 11 SSW 1018,9 19 0,0
17.10.2018 01:00:00 9,9 8,8 8,1 14,9 10 5 16 9 S 1019,3 19 0,0
17.10.2018 00:00:00 10,5 9,4 8,7 15,0 13 7 18 10 S 1019,3 15 0,0
16.10.2018 23:00:00 10,7 9,9 8,5 15,1 12 7 16 9 S 1019,3 20 0,0
16.10.2018 22:00:00 10,7 9,5 8,3 15,3 11 6 15 8 S 1019,2 29 0,0
16.10.2018 21:00:00 11,3 9,6 9,1 15,3 8 4 11 6 SW 1019,2 35 0,0
16.10.2018 20:00:00 12,6 9,8 10,6 15,3 9 5 15 8 S 1018,8 45 0,0
16.10.2018 19:00:00 13,9 10,1 13,9 15,3 13 7 22 12 SW 1018,5 53 0,0
16.10.2018 18:00:00 14,4 9,4 14,3 15,2 16 9 29 16 WSW 1018,2 10 0,0
16.10.2018 17:00:00 15,1 8,8 15,6 15,0 22 12 29 16 WSW 1018,1 55 0,0
16.10.2018 16:00:00 15,3 10,1 16,5 14,7 16 9 29 16 SW 1017,8 53 0,0
16.10.2018 15:00:00 16,8 10,2 17,7 14,4 13 7 26 14 WSW 1017,5 10 0,0
16.10.2018 14:00:00 16,7 10,5 18,2 14,2 15 8 22 12 WSW 1017,6 49 0,0
16.10.2018 13:00:00 15,3 11,7 15,6 14,1 8 5 18 10 SSW 1017,7 21 0,0
16.10.2018 12:00:00 14,2 12,1 13,4 14,0 9 5 18 10 SW 1017,4 15 0,0
16.10.2018 11:00:00 12,9 11,8 12,5 14,1 8 4 11 6 S 1017,1 12 0,0
16.10.2018 10:00:00 11,7 11,5 11,5 14,1 7 4 9 5 SW 1016,6 8 0,0
16.10.2018 09:00:00 11,5 11,3 11,4 14,1 4 2 5 3 SW 1016,2 2,3 0,0
16.10.2018 08:00:00 11,5 11,3 11,4 14,1 5 3 11 6 SW 1015,6 5 0,0
16.10.2018 07:00:00 11,5 11,3 11,4 14,1 5 3 9 5 W 1015,2 2,8 0,0
16.10.2018 06:00:00 11,5 11,3 11,4 14,2 4 2 11 6 W 1014,6 5 0,0
16.10.2018 05:00:00 11,8 11,5 11,9 14,2 5 3 13 7 NW 1014,4 3,2 0,0
16.10.2018 04:00:00 12,2 11,9 12,2 14,2 8 4 11 6 WNW 1014,3 3,0 0,0
16.10.2018 03:00:00 12,4 12,1 12,2 14,2 5 3 9 5 WNW 1014,3 6 0,0
16.10.2018 02:00:00 12,3 12,0 12,0 14,2 0 0 8 4 N 1013,9 9 0,0
16.10.2018 01:00:00 12,4 12,2 12,3 14,3 2 1 4 2 SE 1013,9 5 0,0
16.10.2018 00:00:00 12,4 12,2 12,1 14,3 0 0 8 4 N 1013,8 7 0,0
15.10.2018 23:00:00 12,3 12,3 12,0 14,3 5 3 11 6 NNW 1013,2 1,4 0,0
15.10.2018 22:00:00 12,4 12,4 12,4 14,3 7 4 18 10 NNW 1013,0 1,8 0,0
15.10.2018 21:00:00 12,3 12,3 12,3 14,3 13 7 21 11 N 1012,1 1,5 0,0
15.10.2018 20:00:00 12,3 12,1 12,4 14,3 11 6 16 9 NNW 1011,7 3,3 0,0
15.10.2018 19:00:00 12,4 12,2 12,6 14,3 10 6 21 11 NW 1011,4 1,5 0,0
15.10.2018 18:00:00 12,6 12,3 13,4 14,2 12 6 22 12 NW 1011,0 1,8 0,0
15.10.2018 17:00:00 12,9 12,6 13,6 14,1 12 6 21 11 NNW 1010,9 4,2 0,0
15.10.2018 16:00:00 12,8 12,5 13,3 14,1 14 7 22 12 NNW 1010,3 2,0 0,0
15.10.2018 15:00:00 12,4 12,1 13,0 14,0 16 8 26 14 NW 1010,2 2,6 0,0
15.10.2018 14:00:00 12,4 12,1 - - 16 9 28 15 NNW 1010,0 2,7 -
15.10.2018 13:00:00 12,6 12,3 13,2 13,9 19 10 28 15 N 1009,8 3,4 0,0
15.10.2018 12:00:00 12,4 12,1 12,9 13,9 15 8 24 13 NNW 1009,6 6 0,0
15.10.2018 11:00:00 12,3 12,1 12,3 13,9 13 7 22 12 N 1008,8 1,7 0,2
15.10.2018 10:00:00 11,9 11,7 11,7 13,9 11 6 21 11 N 1008,3 2,6 0,2
15.10.2018 09:00:00 11,6 11,4 11,4 13,9 10 5 21 11 N 1007,5 2,0 0,0
15.10.2018 08:00:00 11,4 11,2 11,3 14,0 11 6 22 12 N 1007,1 13 0,0
15.10.2018 07:00:00 11,4 11,1 11,2 14,1 11 6 18 10 N 1007,1 5 0,0
15.10.2018 06:00:00 11,2 10,9 10,9 14,1 12 6 21 11 N 1006,7 16 0,0
15.10.2018 05:00:00 11,2 11,0 11,1 14,1 10 6 16 9 N 1007,0 5 0,0
15.10.2018 04:00:00 11,1 10,8 11,0 14,2 10 5 21 11 N 1007,4 8 0,0
15.10.2018 03:00:00 11,3 11,0 11,2 14,2 12 6 22 12 N 1007,4 6 0,0
15.10.2018 02:00:00 11,3 11,0 11,2 14,3 13 7 21 11 N 1007,1 2,8 0,0
15.10.2018 01:00:00 11,3 11,0 11,2 14,3 11 6 22 12 N 1007,0 5 0,0
15.10.2018 00:00:00 11,6 10,7 11,4 14,4 13 7 24 13 NNE 1007,3 4,7 0,0
14.10.2018 23:00:00 11,7 10,6 11,5 14,4 14 7 29 16 N 1007,3 42 0,0
14.10.2018 22:00:00 11,8 10,9 11,4 14,5 18 10 31 17 NNE 1007,3 20 0,0
14.10.2018 21:00:00 11,6 11,0 11,4 14,5 18 10 31 17 N 1007,1 7 0,0
14.10.2018 20:00:00 11,6 11,1 11,4 14,6 12 7 26 14 N 1007,0 11 0,0
14.10.2018 19:00:00 11,9 11,0 11,9 14,6 16 9 29 16 N 1006,9 15 0,0
14.10.2018 18:00:00 12,3 11,2 12,9 14,5 20 11 34 18 NNE 1006,6 30 0,0
14.10.2018 17:00:00 12,2 11,4 12,3 14,6 21 11 35 19 NNE 1006,5 11 0,0
14.10.2018 16:00:00 12,2 11,6 12,3 14,6 18 10 35 19 N 1006,4 5 0,0
14.10.2018 15:00:00 12,3 11,7 12,5 14,6 20 11 37 20 N 1006,1 6 0,2
14.10.2018 14:00:00 12,1 11,5 12,1 14,6 21 12 37 20 NNE 1006,6 6 0,2
14.10.2018 13:00:00 12,0 11,1 11,5 14,7 19 10 37 20 NNE 1006,6 7 0,2
14.10.2018 12:00:00 11,8 11,0 11,5 14,8 22 12 48 26 NNE 1006,1 11 0,4
14.10.2018 11:00:00 11,9 11,4 11,4 14,9 20 11 41 22 NNE 1005,7 6 1,0
14.10.2018 10:00:00 11,9 11,4 11,1 15,0 22 12 55 30 NNE 1006,1 7 3,3
14.10.2018 09:00:00 11,7 11,2 11,5 15,1 26 14 61 33 NNE 1004,4 2,8 3,2
14.10.2018 08:00:00 12,1 11,9 11,7 15,2 20 11 37 20 N 1003,6 12 1,0
14.10.2018 07:00:00 12,0 11,7 11,9 15,3 15 8 24 13 NNW 1004,3 3,6 6,7
14.10.2018 06:00:00 12,1 11,9 12,0 15,4 17 9 26 14 NNE 1003,3 43 3,2
14.10.2018 05:00:00 12,4 12,2 12,4 15,6 9 5 13 7 NNW 1005,1 6 3,2
14.10.2018 04:00:00 12,5 12,3 12,4 15,7 6 3 13 7 NE 1005,5 3,2 1,2
14.10.2018 03:00:00 12,4 12,1 12,3 15,8 8 4 13 7 WNW 1005,7 10 5,3
14.10.2018 02:00:00 13,2 12,7 12,9 16,0 4 2 13 7 SSW 1007,1 3,5 5,6
14.10.2018 01:00:00 13,5 13,0 13,3 16,0 8 5 15 8 SW 1008,0 6 2,1
14.10.2018 00:00:00 13,8 13,2 13,3 16,1 9 5 22 12 SSW 1008,1 48 0,6
13.10.2018 23:00:00 13,9 13,1 13,5 16,2 14 8 21 11 SW 1008,4 34 0,2
13.10.2018 22:00:00 14,3 13,7 13,9 16,2 11 6 35 19 SSW 1008,4 9 1,8
13.10.2018 21:00:00 15,1 14,3 14,6 16,3 24 13 50 27 W 1008,3 4,3 1,6
13.10.2018 20:00:00 16,6 14,8 15,5 16,3 36 19 57 31 WSW 1007,9 1,6 0,6
13.10.2018 19:00:00 18,4 15,6 16,9 16,2 29 15 59 32 SSW 1007,1 31 0,2
13.10.2018 18:00:00 19,2 15,3 19,0 16,2 32 17 68 37 SSW 1006,8 42 0,0
13.10.2018 17:00:00 19,9 15,1 19,8 16,1 43 23 74 40 SW 1006,8 44 0,0
13.10.2018 16:00:00 21,0 15,1 21,0 16,0 45 25 83 45 SSW 1006,6 29 0,0
13.10.2018 15:00:00 21,1 15,4 20,9 15,9 40 22 76 41 SSW 1006,7 19 0,0
13.10.2018 14:00:00 20,6 15,4 20,5 15,9 34 18 61 33 S 1007,6 40 0,0
13.10.2018 13:00:00 20,2 15,4 20,4 15,7 26 14 52 28 S 1008,3 31 0,0
13.10.2018 12:00:00 20,6 15,2 20,5 15,7 32 18 54 29 S 1008,8 60 0,0
13.10.2018 11:00:00 19,6 15,0 18,7 15,7 23 12 44 24 S 1008,9 49 0,0
13.10.2018 10:00:00 18,7 14,8 18,4 15,7 26 14 46 25 S 1008,9 52 0,0
13.10.2018 09:00:00 19,2 15,3 17,8 15,6 27 15 41 22 S 1008,7 53 0,0
13.10.2018 08:00:00 19,2 15,7 17,2 15,6 22 12 46 25 S 1008,6 54 0,0
13.10.2018 07:00:00 18,8 16,0 17,1 15,6 26 14 50 27 S 1008,7 45 0,0
13.10.2018 06:00:00 17,7 16,7 17,0 15,5 27 15 65 35 S 1009,0 44 0,7
13.10.2018 05:00:00 17,6 16,8 16,9 15,5 42 23 70 38 SSW 1009,6 3,3 2,0
13.10.2018 04:00:00 17,7 16,4 16,8 15,5 27 14 50 27 S 1009,9 2,5 3,2
13.10.2018 03:00:00 17,8 16,3 16,8 15,5 30 16 48 26 S 1010,2 7 0,4
13.10.2018 02:00:00 17,5 16,2 16,7 15,4 33 18 65 35 S 1010,4 47 1,2
13.10.2018 01:00:00 17,8 16,7 17,1 15,3 35 19 74 40 S 1011,1 3,6 1,0
13.10.2018 00:00:00 18,7 16,5 17,3 15,3 45 24 70 38 SSW 1011,0 9 0,2
12.10.2018 23:00:00 18,0 17,0 17,5 15,3 42 23 80 43 SSW 1011,2 3,6 0,4
12.10.2018 22:00:00 19,5 16,3 17,4 15,2 40 22 70 38 SSW 1011,1 34 0,0
12.10.2018 21:00:00 19,2 16,1 17,8 15,2 44 24 76 41 SSW 1011,1 47 0,0
12.10.2018 20:00:00 19,2 15,9 18,7 15,2 46 25 70 38 SSW 1010,9 53 0,0
12.10.2018 19:00:00 19,2 15,3 16,5 15,1 42 23 76 41 S 1010,4 48 0,0
12.10.2018 18:00:00 18,0 15,1 16,0 15,0 45 24 85 46 SSW 1010,5 20 0,0
12.10.2018 17:00:00 18,8 13,9 16,1 15,0 49 26 104 56 SSW 1010,0 18 0,0
12.10.2018 16:00:00 18,8 14,1 17,3 14,8 54 29 102 55 SSW 1009,6 14 0,0
12.10.2018 15:00:00 20,0 13,5 19,9 14,7 55 30 91 49 SSW 1008,6 10 0,0
12.10.2018 14:00:00 19,8 13,5 20,0 14,6 50 27 94 51 SSW 1008,8 21 0,0
12.10.2018 13:00:00 20,2 14,1 18,9 14,5 52 28 80 43 SSW 1008,0 12 0,0
12.10.2018 12:00:00 19,1 13,5 18,6 14,5 49 27 83 45 S 1008,1 22 0,0
12.10.2018 11:00:00 18,1 13,0 17,3 14,4 46 25 76 41 S 1007,8 10 0,0
12.10.2018 10:00:00 17,4 12,3 17,0 14,4 39 21 72 39 S 1007,6 51 0,0
12.10.2018 09:00:00 17,4 12,1 16,8 14,4 45 24 80 43 S 1007,0 43 0,0
12.10.2018 08:00:00 17,1 12,4 16,3 14,4 43 23 72 39 S 1006,9 44 0,0
12.10.2018 07:00:00 16,8 12,9 15,8 14,4 42 23 68 37 S 1006,7 10 0,0
12.10.2018 06:00:00 16,1 13,4 15,2 14,4 40 22 63 34 S 1006,7 41 0,0
12.10.2018 05:00:00 15,5 13,2 14,2 14,4 44 24 67 36 S 1006,5 43 0,0
12.10.2018 04:00:00 14,9 12,8 13,6 14,5 40 22 65 35 S 1006,6 41 0,2
12.10.2018 03:00:00 14,8 12,3 13,6 14,5 37 20 57 31 S 1006,6 28 0,0

tt = temperature
td = dewpoint
tt 5cm = temperature 5cm
tt -20cm = temperature -20cm
ff = wind speed
fx = gusts
dd = wind direction
ppp = reduced air pressure
vv = visibility
rr = precipitation

Next stations